TimeEST,TemperatureF,Dew PointF,Humidity,Sea Level PressureIn,VisibilityMPH,Wind Direction,Wind SpeedMPH,Gust SpeedMPH,PrecipitationIn,Events,Conditions,WindDirDegrees,DateUTC
12:53 AM,33.1,27.0,78,30.22,10.0,ESE,6.9,-,N/A,,Clear,110,2012-12-06 05:53:00
1:53 AM,32.0,27.0,82,30.21,10.0,ESE,8.1,-,N/A,,Clear,120,2012-12-06 06:53:00
2:53 AM,32.0,27.0,82,30.20,10.0,ESE,6.9,-,N/A,,Clear,120,2012-12-06 07:53:00
3:53 AM,30.9,27.0,85,30.20,10.0,ESE,5.8,-,N/A,,Clear,120,2012-12-06 08:53:00
4:53 AM,30.0,26.1,85,30.19,10.0,ESE,5.8,-,N/A,,Clear,110,2012-12-06 09:53:00
5:53 AM,30.9,27.0,85,30.17,10.0,ESE,6.9,-,N/A,,Clear,120,2012-12-06 10:53:00
6:53 AM,30.9,27.0,85,30.17,10.0,SE,5.8,-,N/A,,Clear,130,2012-12-06 11:53:00
7:53 AM,30.0,27.0,88,30.17,8.0,ESE,8.1,-,N/A,,Clear,120,2012-12-06 12:53:00
8:53 AM,32.0,28.0,85,30.16,10.0,ESE,6.9,-,N/A,,Clear,120,2012-12-06 13:53:00
9:53 AM,34.0,30.0,85,30.15,10.0,ESE,5.8,-,N/A,,Clear,120,2012-12-06 14:53:00
10:53 AM,37.9,30.9,76,30.14,10.0,SE,4.6,-,N/A,,Clear,140,2012-12-06 15:53:00
11:53 AM,43.0,33.1,68,30.09,10.0,ESE,8.1,-,N/A,,Clear,120,2012-12-06 16:53:00
12:53 PM,46.9,33.1,59,30.06,10.0,SSE,5.8,-,N/A,,Clear,150,2012-12-06 17:53:00
1:53 PM,50.0,33.1,52,30.03,10.0,SSE,9.2,-,N/A,,Clear,150,2012-12-06 18:53:00
2:53 PM,50.0,34.0,54,30.01,10.0,SSE,5.8,-,N/A,,Mostly Cloudy,160,2012-12-06 19:53:00
3:53 PM,50.0,36.0,59,30.01,10.0,SE,5.8,-,N/A,,Overcast,140,2012-12-06 20:53:00
4:53 PM,48.9,37.0,64,30.00,10.0,SSE,4.6,-,N/A,,Overcast,160,2012-12-06 21:53:00
5:53 PM,48.0,37.0,66,30.01,10.0,SSE,3.5,-,N/A,,Overcast,150,2012-12-06 22:53:00
6:32 PM,48.2,37.4,66,29.98,10.0,SE,3.5,-,N/A,,Overcast,140,2012-12-06 23:32:00
6:53 PM,48.0,37.0,66,29.99,10.0,SE,5.8,-,N/A,,Overcast,140,2012-12-06 23:53:00
7:53 PM,46.9,37.9,71,29.99,10.0,SSE,4.6,-,0.00,,Overcast,150,2012-12-07 00:53:00
8:50 PM,48.2,39.2,71,29.97,10.0,South,3.5,-,N/A,,Overcast,170,2012-12-07 01:50:00
8:53 PM,48.0,39.0,71,29.99,10.0,South,4.6,-,N/A,,Overcast,170,2012-12-07 01:53:00
9:39 PM,46.4,39.2,76,29.97,10.0,South,4.6,-,N/A,,Overcast,180,2012-12-07 02:39:00
9:53 PM,46.9,39.9,77,29.99,10.0,South,4.6,-,N/A,,Overcast,190,2012-12-07 02:53:00
10:53 PM,48.0,42.1,80,29.98,10.0,SSW,4.6,-,N/A,,Overcast,210,2012-12-07 03:53:00
11:08 PM,48.2,42.8,82,29.97,10.0,SSW,5.8,-,N/A,,Overcast,200,2012-12-07 04:08:00
11:53 PM,46.9,43.0,86,29.97,10.0,SSW,3.5,-,N/A,,Overcast,210,2012-12-07 04:53:00